Flag for Switzerland Weather past 2 weeks in Delémont, Jura, Switzerland

Now
44 °F

Quite cool.


Feels Like: 42 °F
Forecast: 33 / 42 °F
Wind: 5 mph from Southwest

Location: Grenchen

Current Time: Mar 4, 2015 at 12:13:55 AM

Latest Report: Mar 3, 2015 at 11:00 PM


Visibility: N/A

Pressure: 30.24 "Hg

Humidity: 63%

Dew point: 32 °F

Location of DelémontLocation

Historic Weather in Delémont — Graph

°F

Delémont temperature yesterday

Maximum temperature yesterday: 51 °F (at 4:00 PM)
Minimum temperature yesterday: 33 °F (at 7:00 AM)
Average temperature yesterday: 42 °F

Past Weeks' High & Low Weather Summary

 TemperatureHumidityPressure
High51 °F (Mar 3, 4:00 PM)100% (Feb 17, 8:00 AM)30.75 "Hg (Feb 17, 8:00 AM)
Low25 °F (Feb 20, 6:00 AM)43% (Feb 26, 4:00 PM)29.63 "Hg (Feb 21, 9:00 AM)
Average36 °F87%30.12 "Hg
* Reported Feb 16 10:00 PM — Mar 3 10:00 PM, Delémont, Weather by CustomWeather, © 2015

Note: Actual official high and low records may vary slightly from our data, if they occured in-between our weather recording intervals... More about our weather records

Advertising

Delémont weather history for previous 24 hours

 ConditionsComfort  
Time TempWeatherWind HumidityBarometerVisibility
10:00 PM
Tue, Mar 3
43 °FQuite cool.3 mph66%30.24 "HgN/A
9:00 PM43 °FQuite cool.2 mph73%30.24 "HgN/A
8:00 PM44 °FQuite cool.2 mph64%30.23 "HgN/A
7:00 PM46 °FCool.6 mph59%30.21 "HgN/A
6:00 PM47 °FCool.6 mph65%30.20 "HgN/A
5:00 PM50 °FCool.13 mph49%30.19 "HgN/A
4:00 PM51 °FCool.12 mph53%30.19 "HgN/A
3:00 PM51 °FCool.13 mph59%30.20 "HgN/A
2:00 PM49 °FCool.8 mph60%30.22 "HgN/A
1:00 PM48 °FCool.8 mph61%30.24 "HgN/A
12:00 PM46 °FCool.3 mph60%30.27 "HgN/A
11:00 AM45 °FQuite cool.1 mph63%30.28 "HgN/A
10:00 AM42 °FQuite cool.1 mph67%30.29 "HgN/A
9:00 AM38 °FChilly.3 mph82%30.31 "HgN/A
8:00 AM34 °FChilly.2 mph87%30.31 "HgN/A
7:00 AM33 °FChilly.2 mph91%30.31 "HgN/A
6:00 AM36 °FChilly.3 mph79%30.29 "HgN/A
5:00 AM38 °FChilly.9 mph70%30.28 "HgN/A
4:00 AM38 °FChilly.8 mph69%30.28 "HgN/A
3:00 AM38 °FChilly.8 mph68%30.29 "HgN/A
2:00 AM37 °FChilly.6 mph73%30.29 "HgN/A
1:00 AM36 °FChilly.3 mph81%30.29 "HgN/A
12:00 AM39 °FChilly.3 mph71%30.27 "HgN/A
Weather by CustomWeather, © 2015

See weather overviewHow to use our weather pages